Terminal Aerodrome Forecast
Issued by NWS Paducah, KY

Home | Current Version | Previous Version | Text Only | Print | Product List | Glossary Off
Versions: 1 2 3 4 5 6 7 8 9 10 11 12 13 14 15 16 17 18 19 20 21 22 23 24 25 26

000
FTUS43 KPAH 071957 AAA
TAFEVV
TAF AMD
KEVV 071957Z 0720/0818 22012KT 3SM TSRA SCT010 OVC030CB
      TEMPO 0720/0721 VRB12G20KT 1SM TSRA BKN010CB
     FM080000 22008KT 3SM TSRA BKN009CB
     FM080600 VRB04KT 2SM BR BKN005 PROB30 0806/0812 TS SCT005
      BKN015CB
     FM081400 23007KT P6SM VCTS SCT015CB BKN025=

USA.gov is the U.S. government's official web portal to all federal, state and local government web resources and services.